Location: Grand Mazuras
(45.9128°N, 1.7636°E)
Time: 20:53:48
(UTC+00:00)

N. Korean satellite - Pass Details

Date: 06 October 2021
Orbit: 450 x 495 km, 97.3° (Epoch: 25 October)

Event Time Altitude Azimuth Distance (km) Brightness Sun altitude
Rises 04:37:34 0° 22° (NNE) 2,566 10.7 -14.8°
Reaches altitude 10° 04:39:49 10° 33° (NNE) 1,686 9.9 -14.4°
Maximum altitude 04:43:04 30° 96° (E) 899 8.7 -13.8°
Drops below altitude 10° 04:46:19 10° 160° (SSE) 1,687 9.5 -13.2°
Sets 04:48:34 0° 171° (S) 2,566 10.3 -12.9°
